Location: Sungai Laei
(2.6000°N, 113.7167°E)
Time: 11:02:19
(UTC+00:00)

H-2A R/B - Pass Details

Date: 22 May 2022
Orbit: 491 x 536 km, 97.3° (Epoch: 01 April)

Event Time Altitude Azimuth Distance (km) Brightness Sun altitude
Rises 21:02:02 0° 3° (N) 2,565 6.6 -17.7°
Reaches altitude 10° 21:04:08 10° 359° (N) 1,682 5.6 -17.2°
Maximum altitude 21:07:39 53° 281° (WNW) 605 2.7 -16.4°
Enters shadow 21:09:17 28° 217° (SW) 940 3.5 -16.0°
